Regional Weather Roundup
Issued by NWS

Home | Current Version | Previous Version | Text Only | Print | Product List | Glossary Off
Versions: 1 2 3 4 5 6 7 8 9 10 11 12 13 14 15 16 17 18 19 20 21 22 23 24 25 26 27 28 29 30 31 32 33 34 35 36 37 38 39 40 41 42 43 44 45 46 47 48 49 50

000
ASUS45 KSLC 111110
RWRUT

UTAH REGIONAL WEATHER ROUNDUP
NATIONAL WEATHER SERVICE SALT LAKE CITY UT
400 AM MST MON DEC 11 2017

UTZ001>011-023>025-111200-

NORTHERN UTAH

CITY           SKY/WX    TMP DP  RH WIND       PRES   REMARKS
BRIGHAM CITY   PTCLDY    18  14  85 CALM      30.61F
HILL AFB       PTCLDY    22  14  72 E10       30.57F WCI  11
LOGAN          CLOUDY    20  13  74 CALM      30.62F
OGDEN          PTCLDY    22  15  75 S6        30.58F WCI  14
SALT LAKE CITY FOG       21  20  96 W3        30.60F VSB 1/4
TOOELE VALLEY  CLOUDY    18  16  93 SW5       30.61F WCI  11
WENDOVER       MOCLDY    11   6  81 CALM      30.61F
HEBER CITY       N/A      9   5  85 CALM      30.57S
WEST JORDAN    PTCLDY    19  18  95 CALM      30.59F

$$

UTZ011>015-024>027-111200-

CENTRAL/NORTHEAST UTAH

CITY           SKY/WX    TMP DP  RH WIND       PRES   REMARKS
PROVO AIRPORT  PTCLDY    15  11  83 CALM      30.61F
MOAB/CANYONLAN MOCLDY    12  -5  46 SW3       30.53S
DELTA          CLOUDY    10   9  92 S6        30.58F WCI   1
PRICE          PTCLDY    19  -4  36 CALM      30.50S
ROOSEVELT      CLOUDY    12   5  73 SW3       30.60S
VERNAL         CLOUDY    12   5  73 W5        30.57F WCI   4

$$

UTZ013>016-019>022-027-111200-

SOUTHERN UTAH

CITY           SKY/WX    TMP DP  RH WIND       PRES   REMARKS
BRYCE CANYON   PTCLDY     7 -14  37 W10       30.55S WCI  -8
CEDAR CITY     MOCLDY    16   6  65 NE5       30.53R WCI   9
MILFORD        CLOUDY    10   5  80 CALM      30.57R
ST GEORGE      MOSUNNY   34   1  24 CALM      30.49S
HANKSVILLE     CLOUDY    10  -4  52 CALM      30.58R
BLANDING         N/A     24   1  36 CALM      30.57S

$$

REGIONAL REPORTS     COLORADO/ARIZONA

CITY           SKY/WX    TMP DP  RH WIND       PRES   REMARKS
CRAIG, CO      CLOUDY     5  -1  76 CALM      30.56S
GRAND JUNCTION CLOUDY    18   0  45 E7        30.55S WCI   9
RIFLE, CO      CLOUDY    15   3  59 SE5       30.58F WCI   8
MONTROSE, CO   CLOUDY    15  -1  49 SE6       30.59R WCI   6
CORTEZ, CO     CLOUDY     8  -2  63 CALM      30.52R
COLORADO CITY    N/A     12  -8  40 SE6       30.51S WCI   3
PAGE, AZ       CLOUDY    28  12  51 SE3       30.52R
GRAND CANYON   MOCLDY    19 -11  26 NE3       30.48S
KINGMAN, AZ    MOCLDY    32  -4  21 E3        30.36S
FLAGSTAFF, AZ  MOCLDY    17  -8  32 NE5       30.47F WCI  10

$$

REGIONAL REPORTS    NEVADA/IDAHO/WYOMING

CITY           SKY/WX    TMP DP  RH WIND       PRES   REMARKS
LAS VEGAS, NV  MOCLDY    45   5  19 SW3       30.37R
ELY, NY        MOCLDY     7  -8  50 S13       30.55F WCI  -9
ELKO, NV       MOCLDY    13  10  88 NE6       30.56S WCI   4
POCATELLO, ID  CLOUDY    13  10  88 E3        30.59F
BURLEY, ID     FOG       16  14  92 MISG      30.57F VSB 1/4
FORT BRIDGER,    N/A     35  -1  21 W10       30.54S WCI  28
EVANSTON, WY   CLOUDY    27   6  41 SW5       30.54F WCI  22
ROCK SPRINGS,  CLOUDY    26   5  40 SW8       30.49F WCI  18

$$



USA.gov is the U.S. government's official web portal to all federal, state and local government web resources and services.